Regional Weather Roundup
Issued by NWS

Home | Current Version | Previous Version | Graphics & Text | Print | Product List | Glossary On
Versions: 1 2 3 4 5 6 7 8 9 10 11 12 13 14 15 16 17 18 19 20 21 22 23 24 25 26 27 28 29 30 31 32 33 34 35 36 37 38 39 40 41 42 43 44 45 46 47 48 49 50
000
ASUS45 KBOI 271910
RWRID

IDAHO REGIONAL WEATHER ROUNDUP
NATIONAL WEATHER SERVICE BOISE ID
100 PM MDT MON JUL 27 2015

NOTE: "FAIR" INDICATES FEW OR NO CLOUDS BELOW 12000 FEET
WITH NO SIGNIFICANT WEATHER AND/OR OBSTRUCTIONS TO VISIBILITY

IDZ012-014-272000-
SOUTHWEST IDAHO


CITY           SKY/WX    TMP DP  RH WIND       PRES   REMARKS
BOISE          MOSUNNY   70  39  32 NW16G28   30.05S
CALDWELL       MOSUNNY   72  36  26 W15G25    30.07S
MOUNTAIN HOME  MOSUNNY   70  36  28 NW28G38   30.04S
$$

IDZ016-017-272000-
SOUTHCENTRAL IDAHO


CITY           SKY/WX    TMP DP  RH WIND       PRES   REMARKS
BURLEY         MOSUNNY   62  43  49 W16G25    30.05R
JEROME         SUNNY     65  39  38 W28G37    30.05S
TWIN FALLS     MOSUNNY   69  40  34 W22G33    30.04S
$$

IDZ019>023-272000-
SOUTHEAST IDAHO


CITY           SKY/WX    TMP DP  RH WIND       PRES   REMARKS
IDAHO FALLS    LGT RAIN  50  48  93 S16       30.04S
POCATELLO      PTSUNNY   53  48  83 S13       30.07R
REXBURG        RAIN      51  47  86 S16G24    30.06R FOG
$$

IDZ006-010-011-018-031-032-272000-
CENTRAL IDAHO MOUNTAINS


CITY           SKY/WX    TMP DP  RH WIND       PRES   REMARKS
MCCALL         PTSUNNY   57  37  47 N9G17     30.05R
HAILEY         MOSUNNY   64  39  39 S7        29.99S
STANLEY          N/A     49  43  80 VRB5      30.11R
SALMON         CLOUDY    52  50  93 SW7       30.00R
CHALLIS        TSTM      48  43  82 N7        30.04R
$$

IDZ002-004-006-007-026-272000-
NORTHERN IDAHO


CITY           SKY/WX    TMP DP  RH WIND       PRES   REMARKS
LEWISTON       PTSUNNY   69  42  37 NW8G22    30.05R
LOWELL           N/A     68  42  38 CALM      30.03F
COEUR D`ALENE  MOSUNNY   68  39  34 SW10      30.01F
MULLAN PASS    MOSUNNY   51  39  63 VRB6      30.07F
$$



USA.gov is the U.S. government's official web portal to all federal, state and local government web resources and services.